metlocid,date_time,avg_pressta,std_pressta,min_pressta,max_pressta,n_pressta,n_comments
MISM,1/28/12,1136.974359,0.627743641,1136,1138,39,0
MISM,1/29/12,1134.166667,1.498537299,1132,1136,96,0
MISM,1/30/12,1129.958333,0.893445921,1129,1132,96,0
MISM,1/31/12,1132.333333,0.991189256,1130,1134,96,0
MISM,2/1/12,1128.75,1.569445091,1127,1132,96,0
MISM,2/2/12,1132.291667,0.738656913,1131,1134,96,0
MISM,2/3/12,1133.25,0.88257995,1131,1134,96,0
MISM,2/4/12,1130.208333,1.329160136,1128,1133,96,0
MISM,2/5/12,1136.041667,1.653810061,1133,1139,96,0
MISM,2/6/12,1142.291667,2.041241452,1139,1146,96,0
MISM,2/7/12,1150.5,2.228995525,1145,1152,96,0
MISM,2/8/12,1149.25,1.973508764,1146,1152,96,0
MISM,2/9/12,1146.5,0.50262469,1146,1147,96,0
MISM,2/10/12,1147.791667,1.045458013,1146,1149,96,0
MISM,2/11/12,1140.583333,3.320325497,1136,1146,96,0
MISM,2/12/12,1139.958333,3.788949769,1136,1148,96,0
MISM,2/13/12,1156.791667,5.109159302,1148,1165,96,0
MISM,2/14/12,1164.833333,1.253766256,1163,1166,96,0
MISM,2/15/12,1161.083333,1.358533781,1159,1163,96,0
MISM,2/16/12,1157.291667,0.893445921,1156,1159,96,0
MISM,2/17/12,1157.333333,1.91760084,1154,1159,96,0
MISM,2/18/12,1146.416667,3.541235784,1142,1153,96,0
MISM,2/19/12,1152.916667,3.913987512,1145,1159,96,0
MISM,2/20/12,1152.416667,4.051423835,1146,1158,96,0
MISM,2/21/12,1144.291667,0.939391367,1143,1146,96,0
MISM,2/22/12,1144.125,0.668856054,1143,1145,96,0
MISM,2/23/12,1142.5,1.812239092,1139,1145,96,0
MISM,2/24/12,1137.916667,0.401750555,1137,1139,96,0
MISM,2/25/12,1143.375,2.970911609,1139,1149,96,0
MISM,2/26/12,1151.25,0.664909966,1150,1152,96,0
MISM,2/27/12,1149.083333,2.070680878,1145,1152,96,0
MISM,2/28/12,1145.375,1.636749024,1143,1148,96,0
MISM,2/29/12,1146.958333,0.939391367,1145,1148,96,0
MISM,3/1/12,1149.208333,1.716279125,1147,1152,96,0
MISM,3/2/12,1152.458333,1.16000605,1151,1155,96,0
MISM,3/3/12,1154.375,0.486664263,1154,1155,96,0
MISM,3/4/12,1151.583333,0.913831341,1150,1154,96,0
MISM,3/5/12,1150.083333,1.157735236,1148,1152,96,11
MISM,3/6/12,1143.916667,2.812253888,1139,1148,96,3
MISM,3/7/12,1137.958333,1.178014982,1137,1141,96,14
MISM,3/8/12,1140.958333,0.614160388,1140,1142,96,0
MISM,3/9/12,1143.791667,1.421020143,1141,1146,96,11
MISM,3/10/12,1144.041667,0.939391367,1142,1145,96,1
MISM,3/11/12,1140.166667,1.470171252,1138,1143,96,0
MISM,3/12/12,1135.041667,1.178014982,1134,1137,96,0
MISM,3/13/12,1138.666667,2.473721538,1135,1142,96,0
MISM,3/14/12,1139.625,1.38602043,1138,1142,96,0
MISM,3/15/12,1140.208333,0.647532428,1139,1141,96,1
MISM,3/16/12,1140.958333,1.025123014,1140,1143,96,29
MISM,3/17/12,1146.125,1.430862824,1144,1148,96,26
MISM,3/18/12,1148.083333,1.082557077,1147,1151,96,0
MISM,3/19/12,1150.916667,1.477313826,1147,1152,96,7
MISM,3/20/12,1143.291667,2.102212702,1140,1147,96,29
MISM,3/21/12,1145.541667,4.457794278,1140,1153,96,29
MISM,3/22/12,1152.333333,1.580583947,1149,1154,96,34
MISM,3/23/12,1147.625,0.699623959,1147,1149,96,33
MISM,3/24/12,1149.166667,3.174459479,1145,1153,96,8
MISM,3/25/12,1152.5,0.8705715,1151,1155,96,29
MISM,3/26/12,1151.583333,2.915175057,1147,1155,96,1
MISM,3/27/12,1139.833333,3.889707516,1134,1146,96,13
MISM,3/28/12,1131.208333,1.264217392,1130,1134,96,43
MISM,3/29/12,1130.666667,0.690791562,1130,1132,96,31
MISM,3/30/12,1132.833333,2.184474725,1130,1138,96,0
MISM,3/31/12,1144.125,3.261417193,1138,1149,96,2
MISM,4/1/12,1151.958333,1.800097463,1149,1154,96,30
MISM,4/2/12,1153.833333,0.555672502,1153,1155,96,32
MISM,4/3/12,1157,1.391704748,1155,1159,96,0
MISM,4/4/12,1159.125,0.332454983,1159,1160,96,16
MISM,4/5/12,1155.625,1.898753053,1153,1158,96,44
MISM,4/6/12,1152.125,1.058797729,1150,1153,96,51
MISM,4/7/12,1149.875,0.729094608,1149,1151,96,31
MISM,4/8/12,1153,0.767771896,1152,1154,96,22
MISM,4/9/12,1155.791667,2.190489811,1152,1158,96,39
MISM,4/10/12,1150.208333,3.860506284,1144,1157,96,40
MISM,4/11/12,1141.208333,1.264217392,1140,1144,96,37
MISM,4/12/12,1139.25,1.169795304,1137,1141,96,30
MISM,4/13/12,1133.875,0.885556619,1133,1136,96,18
MISM,4/14/12,1133.791667,0.578867618,1133,1135,96,54
MISM,4/15/12,1137.541667,2.171182878,1134,1141,96,43
MISM,4/16/12,1144,1.989445837,1141,1147,96,0
MISM,4/17/12,1143.375,1.784435632,1141,1147,96,0
MISM,4/18/12,1139.458333,1.16000605,1137,1141,96,25
MISM,4/19/12,1135.916667,0.816496581,1135,1138,96,49
MISM,4/20/12,1139.041667,1.141713087,1137,1141,96,45
MISM,4/21/12,1131.375,3.504132898,1124,1136,96,32
MISM,4/22/12,1121.25,1.429022485,1119,1123,96,50
MISM,4/23/12,1131.333333,5.594483498,1124,1139,96,44
MISM,4/24/12,1122.541667,6.53398672,1115,1135,96,31
MISM,4/25/12,1119.791667,3.218095765,1114,1126,96,45
MISM,4/26/12,1128.458333,1.880182895,1124,1132,96,15
MISM,4/27/12,1136.166667,2.606335062,1132,1141,96,44
MISM,4/28/12,1147.458333,2.959077618,1142,1150,96,23
MISM,4/29/12,1146.75,0.781361834,1146,1149,96,63
MISM,4/30/12,1149.291667,2.53778464,1147,1155,96,55
MISM,5/1/12,1156.458333,1.391074304,1153,1158,96,80
MISM,5/2/12,1142.458333,5.100911511,1136,1152,96,69
MISM,5/3/12,1133.041667,2.041241452,1129,1136,96,86
MISM,5/4/12,1123.166667,2.573822333,1119,1128,96,70
MISM,5/5/12,1117.416667,2.98651942,1114,1125,96,34
MISM,5/6/12,1129.708333,1.548627009,1126,1132,96,36
MISM,5/7/12,1125.833333,2.241553346,1122,1129,96,18
MISM,5/8/12,1135.333333,8.118421763,1123,1148,96,48
MISM,5/9/12,1152.041667,1.280761835,1148,1154,96,28
MISM,5/10/12,1147.416667,1.664911356,1145,1150,96,23
MISM,5/11/12,1149.083333,2.72093895,1143,1152,96,56
MISM,5/12/12,1143.791667,0.766628527,1142,1145,96,28
MISM,5/13/12,1144.25,1.01566675,1143,1146,96,43
MISM,5/14/12,1146.25,0.973328527,1145,1149,96,3
MISM,5/15/12,1149.458333,1.391074304,1147,1152,96,14
MISM,5/16/12,1145.166667,1.607002222,1143,1148,96,46
MISM,5/17/12,1149.916667,4.332658517,1144,1155,96,36
MISM,5/18/12,1151.583333,2.301791827,1148,1156,96,84
MISM,5/19/12,1143.166667,2.732520204,1139,1148,96,61
MISM,5/20/12,1139.875,1.953404585,1138,1144,96,0
MISM,5/21/12,1147.541667,1.989004864,1144,1150,96,57
MISM,5/22/12,1144.625,1.474341958,1141,1147,96,0
MISM,5/23/12,1137.416667,4.428773542,1130,1144,96,77
MISM,5/24/12,1121.125,3.581384619,1117,1129,96,37
MISM,5/25/12,1127.833333,8.592122055,1117,1142,96,82
MISM,5/26/12,1150.208333,3.577463573,1143,1155,96,49
MISM,5/27/12,1150.375,3.814791158,1144,1155,96,22
MISM,5/28/12,1146.25,1.69829636,1144,1149,96,75
MISM,5/29/12,1140.541667,4.504773297,1133,1147,96,17
MISM,5/30/12,1128.958333,1.37585699,1127,1132,96,0
MISM,5/31/12,1131.958333,1.178014982,1130,1134,96,9
MISM,6/1/12,1137.041667,1.913479425,1134,1139,96,67
MISM,6/2/12,1134.208333,1.764662882,1132,1138,96,96
MISM,6/3/12,1143.791667,2.959077618,1138,1148,96,96
MISM,6/4/12,1147.875,1.370747011,1145,1149,96,85
MISM,6/5/12,1140,3.783621212,1135,1146,96,19
MISM,6/6/12,1140.208333,3.178601701,1136,1145,96,9
MISM,6/7/12,1150.125,2.177637542,1146,1153,96,49
MISM,6/8/12,1160.75,5.028340733,1154,1169,96,16
MISM,6/9/12,1172.541667,1.391074304,1170,1174,96,62
MISM,6/10/12,1167.416667,2.494907093,1163,1172,96,1
MISM,6/11/12,1163.125,1.097844779,1161,1165,96,52
MISM,6/12/12,1168.416667,2.169970491,1165,1171,96,39
MISM,6/13/12,1166.291667,2.020508882,1163,1171,96,19
MISM,6/14/12,1151.333333,7.094351596,1137,1162,96,26
MISM,6/15/12,1134.416667,1.714745135,1132,1137,96,35
MISM,6/16/12,1139.291667,3.777820777,1133,1144,96,15
MISM,6/17/12,1147.666667,4.835540936,1142,1157,96,74
MISM,6/18/12,1155.041667,2.923288223,1149,1158,96,40
MISM,6/19/12,1141.458333,2.887055199,1139,1148,96,11
MISM,6/20/12,1136.416667,1.786891842,1133,1139,96,66
MISM,6/21/12,1136.791667,2.752670155,1133,1142,96,30
MISM,6/22/12,1141.458333,1.421020143,1139,1143,96,20
MISM,6/23/12,1144,3.58945825,1140,1150,96,55
MISM,6/24/12,1152.083333,0.763188142,1151,1153,96,51
MISM,6/25/12,1150.583333,1.639426515,1149,1155,96,46
MISM,6/26/12,1157.958333,1.703968536,1155,1161,96,32
MISM,6/27/12,1160.208333,0.961541161,1158,1162,96,28
MISM,6/28/12,1162.083333,2.264911601,1158,1166,96,23
MISM,6/29/12,1170.125,2.290713518,1166,1173,96,2
MISM,6/30/12,1173.583333,1.587229739,1170,1175,96,1
MISM,7/1/12,1167.708333,0.679266891,1166,1169,96,64
MISM,7/2/12,1161.041667,3.036329733,1156,1166,96,36
MISM,7/3/12,1159,1.667017507,1156,1162,96,86
MISM,7/4/12,1165.125,1.488552812,1162,1167,96,85
MISM,7/5/12,1160.5,2.479388719,1156,1165,96,49
MISM,7/6/12,1152.083333,2.528434784,1147,1156,96,1
MISM,7/7/12,1147.75,2.361979544,1145,1152,96,17
MISM,7/8/12,1152.791667,0.647532428,1152,1154,96,8
MISM,7/9/12,1145.916667,3.669695719,1139,1152,96,12
MISM,7/10/12,1133.375,2.672471752,1129,1139,96,30
MISM,7/11/12,1134.916667,1.856236525,1132,1139,96,18
MISM,7/12/12,1137.791667,3.070801941,1132,1141,96,35
MISM,7/13/12,1130.5,1.196486083,1129,1133,96,94
MISM,7/14/12,1133.958333,0.738656913,1133,1136,96,32
MISM,7/15/12,1138.083333,1.120776673,1136,1140,96,0
MISM,7/16/12,1132,2.828427125,1128,1137,96,0
MISM,7/17/12,1129,1.046296728,1127,1130,96,41
MISM,7/18/12,1129.875,0.528154682,1129,1131,96,87
MISM,7/19/12,1133.416667,2.545033002,1129,1136,96,17
MISM,7/20/12,1133.166667,2.184474725,1129,1138,96,23
MISM,7/21/12,1135,4.343173712,1129,1141,96,37
MISM,7/22/12,1128.041667,1.280761835,1126,1131,96,60
MISM,7/23/12,1129,0.410391341,1128,1130,96,33
MISM,7/24/12,1133.416667,3.345591496,1129,1139,96,64
MISM,7/25/12,1139.166667,2.125864117,1135,1142,96,38
MISM,7/26/12,1135.208333,1.195752717,1132,1137,96,3
MISM,7/27/12,1137.25,1.01566675,1135,1139,96,73
MISM,7/28/12,1136.916667,1.00175285,1135,1138,96,44
MISM,7/29/12,1136.416667,1.262134088,1134,1138,96,7
MISM,7/30/12,1131.083333,1.295064856,1129,1134,96,50
MISM,7/31/12,1134.625,3.228980612,1131,1140,96,88
MISM,8/1/12,1143.375,1.258654252,1141,1145,96,81
MISM,8/2/12,1138.458333,1.666491219,1135,1141,96,38
MISM,8/3/12,1141.875,1.135549948,1139,1143,96,27
MISM,8/4/12,1139.375,2.750119615,1136,1143,96,70
MISM,8/5/12,1137.25,1.205251666,1136,1139,96,57
MISM,8/6/12,1140.041667,0.79361487,1139,1141,96,18
MISM,8/7/12,1150.666667,3.824207291,1141,1155,96,64
MISM,8/8/12,1149.708333,4.139455003,1142,1155,96,53
MISM,8/9/12,1146.5,3.542226478,1141,1152,96,27
MISM,8/10/12,1157.541667,1.666491219,1153,1160,96,0
MISM,8/11/12,1158.5,2.092593455,1154,1160,96,31
MISM,8/12/12,1148.916667,3.028519411,1143,1153,96,51
MISM,8/13/12,1138.291667,2.418858655,1135,1143,96,56
MISM,8/14/12,1142.541667,2.659310028,1137,1145,96,2
MISM,8/15/12,1134.041667,0.845005969,1133,1136,96,0
MISM,8/16/12,1137,4.615762468,1131,1145,96,6
MISM,8/17/12,1150.291667,1.935358891,1146,1152,96,35
MISM,8/18/12,1145.541667,1.924450252,1143,1150,96,0
MISM,8/19/12,1138.5,2.562893102,1136,1143,96,37
MISM,8/20/12,1136.875,0.885556619,1136,1139,96,38
MISM,8/21/12,1131.875,4.591181478,1123,1138,96,8
MISM,8/22/12,1126.375,3.040948605,1121,1132,96,25
MISM,8/23/12,1139.5,2.973567767,1132,1142,96,33
MISM,8/24/12,1136.833333,3.342443691,1132,1142,96,30
MISM,8/25/12,1148.75,5.438653084,1137,1155,96,10
MISM,8/26/12,1154.375,0.486664263,1154,1155,96,6
MISM,8/27/12,1153.916667,0.816496581,1153,1155,96,39
MISM,8/28/12,1151.708333,0.614160388,1150,1153,96,10
MISM,8/29/12,1150.333333,0.626883128,1149,1152,96,2
MISM,8/30/12,1146.791667,3.257110979,1141,1152,96,17
MISM,8/31/12,1139.833333,0.902238931,1138,1142,96,28
MISM,9/1/12,1145.25,1.647965253,1142,1148,96,25
MISM,9/2/12,1145.666667,1.470171252,1143,1148,96,17
MISM,9/3/12,1140.5,1.641565363,1137,1143,96,9
MISM,9/4/12,1137.875,2.398464421,1135,1143,96,34
MISM,9/5/12,1144.291667,0.79361487,1143,1146,96,8
MISM,9/6/12,1143.458333,1.16000605,1142,1146,96,27
MISM,9/7/12,1149.25,1.01566675,1147,1150,96,51
MISM,9/8/12,1146.958333,1.435758862,1145,1150,96,33
MISM,9/9/12,1143.916667,0.643455583,1143,1145,96,0
MISM,9/10/12,1147.916667,1.358533781,1145,1150,96,3
MISM,9/11/12,1145.958333,2.894338091,1140,1149,96,15
MISM,9/12/12,1135.791667,2.321146117,1132,1140,96,32
MISM,9/13/12,1131.25,1.647965253,1129,1134,96,19
MISM,9/14/12,1129.25,0.833508753,1128,1132,96,11
MISM,9/15/12,1135.958333,2.453425818,1132,1139,96,17
MISM,9/16/12,1139.166667,0.749268649,1137,1140,96,0
MISM,9/17/12,1136.166667,1.072789445,1135,1138,96,0
MISM,9/18/12,1133.583333,1.664911356,1131,1135,96,5
MISM,9/19/12,1129.541667,0.500876425,1129,1130,96,0
MISM,9/20/12,1132.041667,1.37585699,1130,1134,96,15
MISM,9/21/12,1141.125,3.820305857,1133,1147,96,6
MISM,9/22/12,1154.291667,4.098566288,1148,1160,96,26
MISM,9/23/12,1157.5,3.727564465,1151,1162,96,23
MISM,9/24/12,1145.708333,2.219135283,1143,1150,96,19
MISM,9/25/12,1144.416667,1.193549917,1143,1146,96,0
MISM,9/26/12,1146.333333,0.473879102,1146,1147,96,0
MISM,9/27/12,1150.875,1.544088898,1147,1152,96,5
MISM,9/28/12,1145.333333,3.120953521,1140,1150,96,28
MISM,9/29/12,1133.416667,3.395559536,1126,1138,96,7
MISM,9/30/12,1124.833333,1.658576858,1123,1128,96,22
MISM,10/1/12,1133.375,2.299885581,1129,1136,96,9
MISM,10/2/12,1135.25,0.664909966,1134,1137,96,18
MISM,10/3/12,1134.125,0.976028472,1132,1135,96,20
MISM,10/4/12,1131.458333,1.740639124,1129,1134,96,0
MISM,10/5/12,1125.708333,1.653810061,1123,1129,96,19
MISM,10/6/12,1125.666667,1.827662681,1124,1130,96,1
MISM,10/7/12,1133.916667,1.690011938,1131,1136,96,18
MISM,10/8/12,1132.666667,1.411730306,1131,1135,96,7
MISM,10/9/12,1127.333333,1.982378511,1124,1131,96,9
MISM,10/10/12,1122.083333,1.739126621,1120,1126,96,1
MISM,10/11/12,1129.208333,1.264217392,1126,1131,96,6
MISM,10/12/12,1130.125,1.058797729,1128,1131,96,0
MISM,10/13/12,1130.041667,2.312058398,1126,1134,96,0
MISM,10/14/12,1137.041667,1.141713087,1135,1138,96,0
MISM,10/15/12,1138,0.2901905,1137,1139,96,0
MISM,10/16/12,1139.583333,0.495594628,1139,1140,96,0
MISM,10/17/12,1146.708333,3.036329733,1141,1151,96,0
MISM,10/18/12,1154.25,1.647965253,1151,1156,96,0
MISM,10/19/12,1150.75,3.43664463,1144,1155,96,0
MISM,10/20/12,1136.666667,2.524268176,1134,1143,96,0
MISM,10/21/12,1137.916667,1.613539207,1135,1140,96,0
MISM,10/22/12,1144.458333,1.764662882,1141,1146,96,0
MISM,10/23/12,1145.333333,0.473879102,1145,1146,96,0
MISM,10/24/12,1146.416667,0.763188142,1145,1148,96,0
MISM,10/25/12,1149.083333,0.95880042,1147,1150,96,0
MISM,10/26/12,1143.125,1.275270869,1142,1146,96,0
MISM,10/27/12,1148.583333,2.958188161,1144,1154,96,0
MISM,10/28/12,1152.208333,2.546066798,1147,1155,96,0
MISM,10/29/12,1142.25,2.077447827,1140,1147,96,0
MISM,10/30/12,1146.291667,2.504382124,1142,1149,96,0
MISM,10/31/12,1150.5,0.8705715,1149,1152,96,0
MISM,11/1/12,1154.458333,1.989004864,1152,1158,96,0
MISM,11/2/12,1159,0.767771896,1158,1160,96,0
MISM,11/3/12,1157.25,0.43528575,1157,1158,96,0
MISM,11/4/12,1157.083333,0.866531703,1156,1158,96,0
MISM,11/5/12,1153.875,1.058797729,1153,1156,96,0
MISM,11/6/12,1151.333333,1.111345005,1149,1153,96,0
MISM,11/7/12,1144.416667,1.639426515,1143,1148,96,0
MISM,11/8/12,1151.375,3.725445929,1145,1156,96,0
MISM,11/9/12,1156.125,0.976028472,1154,1157,96,0
MISM,11/10/12,1150.666667,1.411730306,1149,1153,96,0
MISM,11/11/12,1152.75,0.833508753,1151,1154,96,0
MISM,11/12/12,1153.916667,1.262134088,1151,1156,96,0
MISM,11/13/12,1151.375,2.688180758,1147,1155,96,0
MISM,11/14/12,1143.333333,1.441247023,1141,1146,96,0
MISM,11/15/12,1141.583333,0.495594628,1141,1142,96,0
MISM,11/16/12,1146.375,2.592499302,1142,1152,96,0
MISM,11/17/12,1147.541667,2.959077618,1144,1152,96,0
MISM,11/18/12,1143.75,0.598243042,1142,1145,96,0
MISM,11/19/12,1142.833333,1.381583124,1141,1145,96,0
MISM,11/20/12,1141.333333,0.473879102,1141,1142,96,1
MISM,11/21/12,1143.166667,1.526376284,1141,1146,96,0
MISM,11/22/12,1148.208333,1.588886844,1146,1151,96,0
MISM,11/23/12,1152.208333,1.004376389,1150,1153,96,0
MISM,11/24/12,1145.125,2.290713518,1143,1150,96,0
MISM,11/25/12,1145,0.962453006,1143,1146,96,0
MISM,11/26/12,1142.041667,1.49325971,1140,1145,96,0
MISM,11/27/12,1147,0.580381,1146,1148,96,0
MISM,11/28/12,1147.56044,1.222100116,1146,1149,91,2
MISM,11/29/12,1145.291667,0.79361487,1144,1146,96,0
MISM,11/30/12,1142.708333,0.738656913,1142,1144,96,0
MISM,12/1/12,1143.791667,1.045458013,1143,1146,96,2
MISM,12/2/12,1147.541667,0.647532428,1146,1148,96,0
MISM,12/3/12,1147,1.264911064,1144,1148,96,1
MISM,12/4/12,1141.416667,1.533257054,1139,1144,96,0
MISM,12/5/12,1141.166667,0.902238931,1140,1142,96,0
MISM,12/6/12,1141.958333,0.200875278,1141,1142,96,0
MISM,12/7/12,1142.875,0.441289975,1142,1144,96,0
MISM,12/8/12,1144.291667,0.45691567,1144,1145,96,0
MISM,12/9/12,1146.458333,0.578867618,1146,1148,96,0
MISM,12/10/12,1147.625,0.486664263,1147,1148,96,0
MISM,12/11/12,1148.083333,0.495594628,1147,1149,96,0
MISM,12/12/12,1143.708333,1.752692165,1142,1147,96,0
MISM,12/13/12,1147.083333,1.856236525,1144,1150,96,0
MISM,12/14/12,1150.708333,0.45691567,1150,1151,96,0
MISM,12/15/12,1152.125,0.332454983,1152,1153,96,0
MISM,12/16/12,1153.041667,0.200875278,1153,1154,96,0
MISM,12/17/12,1153.708333,0.45691567,1153,1154,96,0
MISM,12/18/12,1154.416667,0.495594628,1154,1155,96,0
MISM,12/19/12,1154.833333,0.690791562,1154,1156,96,0
MISM,12/20/12,1156.958333,0.614160388,1156,1158,96,0
MISM,12/21/12,1153.416667,2.283426173,1149,1157,96,0
MISM,12/22/12,1145.416667,1.810301904,1143,1149,96,9
MISM,12/23/12,1153.375,5.165166732,1145,1160,96,0
MISM,12/24/12,1158.5,1.391704748,1157,1161,96,0
MISM,12/25/12,1156.291667,0.98319208,1155,1158,96,1
MISM,12/26/12,1155.291667,0.45691567,1155,1156,96,0
MISM,12/27/12,1156.5,0.820782682,1155,1158,96,0
MISM,12/28/12,1152.458333,1.421020143,1151,1155,96,0
MISM,12/29/12,1149.75,0.72547625,1149,1151,96,0
MISM,12/30/12,1147.791667,0.500876425,1147,1149,96,3
MISM,12/31/12,1147.333333,0.902238931,1146,1149,96,0
MISM,1/1/13,1148.5,0.820782682,1147,1150,96,0
MISM,1/2/13,1150.75,1.133230129,1149,1153,96,0
MISM,1/3/13,1157,1.562723668,1154,1159,96,0
MISM,1/4/13,1159.666667,0.473879102,1159,1160,96,0
MISM,1/5/13,1156.041667,2.908849173,1151,1160,96,0
MISM,1/6/13,1144.833333,3.13441564,1141,1151,96,0
MISM,1/7/13,1143.541667,1.264217392,1142,1146,96,0
MISM,1/8/13,1150.458333,1.811754989,1147,1152,96,0
MISM,1/9/13,1150.416667,1.157735236,1149,1152,96,0
MISM,1/10/13,1148.75,0.43528575,1148,1149,96,0
MISM,1/11/13,1145.666667,2.184474725,1143,1149,96,4
MISM,1/12/13,1141.791667,0.70958352,1141,1143,96,0
MISM,1/13/13,1140.458333,0.500876425,1140,1141,96,0
MISM,1/14/13,1142.166667,1.982378511,1140,1147,96,0
MISM,1/15/13,1151,1.835325871,1147,1153,96,0
MISM,1/16/13,1146.75,2.0570802,1143,1150,96,0
MISM,1/17/13,1142.75,1.169795304,1142,1146,96,0
MISM,1/18/13,1154.125,3.950349751,1147,1160,96,0
MISM,1/19/13,1160.166667,0.854297701,1159,1161,96,0
MISM,1/20/13,1155.583333,2.208436773,1152,1159,96,0
MISM,1/21/13,1149.791667,0.70958352,1149,1151,96,0
MISM,1/22/13,1148,1.329819932,1146,1150,96,0
MISM,1/23/13,1141.458333,2.444829847,1138,1146,96,0
MISM,1/24/13,1136.583333,0.763188142,1136,1139,96,0
MISM,1/25/13,1144.666667,3.550142078,1139,1151,96,0
MISM,1/26/13,1153.458333,0.819713258,1151,1154,96,0
MISM,1/27/13,1150.916667,1.639426515,1148,1153,96,0
MISM,1/28/13,1145.416667,1.664911356,1143,1148,96,0
MISM,1/29/13,1141.583333,0.705865153,1141,1143,96,0
MISM,1/30/13,1141.25,0.43528575,1141,1142,96,0
MISM,1/31/13,1145.25,1.399247918,1143,1147,96,0
MISM,2/1/13,1145.625,1.153940617,1144,1147,96,0
MISM,2/2/13,1144.041667,0.200875278,1144,1145,96,0
MISM,2/3/13,1144.416667,0.495594628,1144,1145,96,0
MISM,2/4/13,1142.25,0.88257995,1141,1144,96,0
MISM,2/5/13,1139.833333,0.626883128,1139,1141,96,0
MISM,2/6/13,1138.916667,0.705865153,1138,1140,96,0
MISM,2/7/13,1137.583333,0.913831341,1136,1139,96,0
MISM,2/8/13,1135.541667,0.647532428,1134,1137,96,0
MISM,2/9/13,1135.416667,0.574303545,1135,1137,96,0
MISM,2/10/13,1138.208333,1.123122215,1137,1141,96,0
MISM,2/11/13,1144.416667,2.008752777,1141,1148,96,0
MISM,2/12/13,1147.666667,0.473879102,1147,1148,96,0
MISM,2/13/13,1148.916667,0.401750555,1148,1150,96,0
MISM,2/14/13,1149.083333,0.277836251,1149,1150,96,0
MISM,2/15/13,1147.416667,2.766973139,1143,1150,96,0
MISM,2/16/13,1138.958333,3.171971549,1134,1144,96,0
MISM,2/17/13,1131.708333,0.79361487,1131,1134,96,0
MISM,2/18/13,1135.833333,1.780991248,1133,1139,96,0
MISM,2/19/13,1142.375,1.445501188,1139,1144,96,0
MISM,2/20/13,1137.25,3.019236571,1133,1141,96,0
MISM,2/21/13,1128.833333,1.850557052,1127,1133,96,0
MISM,2/22/13,1127.166667,0.473879102,1127,1129,96,0
MISM,2/23/13,1132.875,3.156447037,1129,1139,96,0
MISM,2/24/13,1143.291667,1.178014982,1140,1144,96,0
MISM,2/25/13,1145.416667,0.763188142,1144,1146,96,0
MISM,2/26/13,1143.083333,1.878782734,1140,1146,96,0
MISM,2/27/13,1137.75,0.88257995,1137,1140,96,0
MISM,2/28/13,1139.791667,1.195752717,1138,1142,96,0
MISM,3/1/13,1139.875,1.097844779,1138,1142,96,0
MISM,3/2/13,1137.166667,0.374634325,1137,1138,96,0
MISM,3/3/13,1139.083333,1.228320776,1137,1142,96,0
MISM,3/4/13,1146.5,1.858125824,1143,1148,96,0
MISM,3/5/13,1144.041667,3.34008089,1138,1148,96,4
MISM,3/6/13,1130.583333,2.642433753,1128,1137,96,10
MISM,3/7/13,1134.041667,1.247453547,1131,1135,96,0
MISM,3/8/13,1134.083333,0.495594628,1133,1135,96,18
MISM,3/9/13,1136.5,0.917662935,1135,1138,96,0
MISM,3/10/13,1132.791667,1.391074304,1131,1135,96,0
MISM,3/11/13,1139.791667,1.902445333,1136,1142,96,10
MISM,3/12/13,1141,1.989445837,1139,1145,96,20
MISM,3/13/13,1138.958333,4.583532691,1132,1145,96,0
MISM,3/14/13,1130.125,1.45999279,1128,1134,96,0
MISM,3/15/13,1139.916667,2.301791827,1135,1142,96,0
MISM,3/16/13,1139.291667,1.868952235,1136,1143,96,3
MISM,3/17/13,1128.708333,3.983959064,1123,1135,96,2
MISM,3/18/13,1118.583333,2.511726882,1115,1123,96,30
MISM,3/19/13,1132.333333,5.441877901,1121,1138,96,28
MISM,3/20/13,1136.5,1.535543792,1134,1139,96,0
MISM,3/21/13,1133.208333,0.500876425,1132,1134,96,19
MISM,3/22/13,1137.833333,2.260259262,1134,1142,96,1
MISM,3/23/13,1148.083333,2.98651942,1142,1151,96,2
MISM,3/24/13,1150.125,0.836660027,1148,1151,96,0
MISM,3/25/13,1141.583333,2.356029964,1139,1147,96,0
MISM,3/26/13,1140.375,1.831019273,1138,1144,96,2
MISM,3/27/13,1144.375,0.636602826,1143,1145,96,12
MISM,3/28/13,1139.75,2.64773985,1135,1143,96,43
MISM,3/29/13,1131.625,1.636749024,1128,1134,96,22
MISM,3/30/13,1128.791667,5.604352945,1123,1142,96,25
MISM,3/31/13,1148.208333,1.880182895,1143,1150,96,20
MISM,4/1/13,1146.25,3.033150178,1141,1150,96,47
MISM,4/2/13,1135.75,2.117595459,1132,1140,96,44
MISM,4/3/13,1126.666667,2.83833408,1123,1131,96,16
MISM,4/4/13,1126.041667,2.923288223,1123,1132,96,14
MISM,4/5/13,1134.875,1.401127366,1132,1137,96,7
MISM,4/6/13,1131.25,1.095445115,1130,1134,96,9
MISM,4/7/13,1136.833333,3.561982495,1133,1145,96,11
MISM,4/8/13,1150.25,1.88623825,1146,1152,96,26
MISM,4/9/13,1145.083333,3.332982438,1138,1150,96,5
MISM,4/10/13,1136.041667,1.628151465,1134,1139,96,0
MISM,4/11/13,1137.708333,0.893445921,1137,1139,96,9
MISM,4/12/13,1138.166667,1.319223589,1136,1140,96,23
MISM,4/13/13,1139.5,0.710818653,1139,1141,96,12
MISM,4/14/13,1147.583333,3.097254019,1142,1151,96,20
MISM,4/15/13,1153.416667,1.810301904,1151,1157,96,39
MISM,4/16/13,1158.041667,1.247453547,1155,1159,96,26
MISM,4/17/13,1150.583333,2.169970491,1148,1154,96,0
MISM,4/18/13,1155.208333,3.48203409,1149,1160,96,6
MISM,4/19/13,1155.833333,2.573822333,1151,1160,96,0
MISM,4/20/13,1147.375,1.416073147,1146,1151,96,16
MISM,4/21/13,1150.208333,1.880182895,1147,1153,96,31
MISM,4/22/13,1156.791667,1.902445333,1153,1159,96,43
MISM,4/23/13,1152.583333,3.726623042,1146,1157,96,33
MISM,4/24/13,1141.916667,1.639426515,1139,1145,96,17
MISM,4/25/13,1147.083333,0.705865153,1146,1148,96,64
MISM,4/26/13,1145.25,0.43528575,1145,1146,96,35
MISM,4/27/13,1145.458333,0.500876425,1145,1146,96,44
MISM,4/28/13,1147.958333,2.082087347,1146,1152,96,29
MISM,4/29/13,1152.416667,0.95880042,1151,1154,96,41
MISM,4/30/13,1149.666667,0.749268649,1149,1151,96,21
MISM,5/1/13,1150.25,0.781361834,1148,1151,96,11